TimeCST,TemperatureF,Dew PointF,Humidity,Sea Level PressureIn,VisibilityMPH,Wind Direction,Wind SpeedMPH,Gust SpeedMPH,PrecipitationIn,Events,Conditions,WindDirDegrees,DateUTC
12:53 AM,43.0,37.9,82,30.34,10.0,ENE,3.5,-,N/A,,Clear,70,2012-11-28 06:53:00
2:53 AM,39.0,35.1,86,30.36,9.0,Calm,Calm,-,N/A,,Clear,0,2012-11-28 08:53:00
3:53 AM,37.9,35.1,89,30.37,10.0,Calm,Calm,-,N/A,,Clear,0,2012-11-28 09:53:00
4:53 AM,37.9,34.0,86,30.38,10.0,Calm,Calm,-,N/A,,Clear,0,2012-11-28 10:53:00
6:53 AM,35.1,30.9,85,30.43,6.0,Calm,Calm,-,N/A,,Clear,0,2012-11-28 12:53:00
7:53 AM,37.9,34.0,86,30.44,6.0,Calm,Calm,-,N/A,,Clear,0,2012-11-28 13:53:00
8:53 AM,46.9,41.0,80,30.47,10.0,ENE,4.6,-,N/A,,Clear,70,2012-11-28 14:53:00
9:53 AM,51.1,39.0,63,30.48,10.0,Variable,3.5,-,N/A,,Clear,0,2012-11-28 15:53:00
10:53 AM,55.9,35.1,45,30.48,10.0,East,3.5,-,N/A,,Clear,80,2012-11-28 16:53:00
11:53 AM,61.0,34.0,36,30.44,10.0,East,6.9,-,N/A,,Clear,100,2012-11-28 17:53:00
12:53 PM,63.0,34.0,34,30.40,10.0,ENE,5.8,-,N/A,,Clear,70,2012-11-28 18:53:00
1:53 PM,64.0,32.0,30,30.36,10.0,Variable,5.8,-,N/A,,Clear,0,2012-11-28 19:53:00
2:53 PM,64.9,32.0,29,30.33,10.0,East,6.9,-,N/A,,Clear,90,2012-11-28 20:53:00
3:53 PM,64.0,32.0,30,30.32,10.0,East,6.9,-,N/A,,Clear,90,2012-11-28 21:53:00
4:53 PM,59.0,35.1,41,30.32,10.0,East,4.6,-,N/A,,Clear,90,2012-11-28 22:53:00
5:53 PM,52.0,37.0,57,30.33,10.0,Calm,Calm,-,N/A,,Clear,0,2012-11-28 23:53:00
6:53 PM,46.9,37.9,71,30.33,10.0,East,3.5,-,N/A,,Clear,80,2012-11-29 00:53:00
7:53 PM,46.9,37.0,68,30.34,10.0,ENE,3.5,-,N/A,,Clear,70,2012-11-29 01:53:00
8:53 PM,45.0,36.0,71,30.35,10.0,Calm,Calm,-,N/A,,Clear,0,2012-11-29 02:53:00
9:53 PM,41.0,35.1,79,30.35,10.0,Calm,Calm,-,N/A,,Clear,0,2012-11-29 03:53:00
10:53 PM,39.9,35.1,83,30.34,10.0,Calm,Calm,-,N/A,,Clear,0,2012-11-29 04:53:00
11:53 PM,37.9,34.0,86,30.32,10.0,Calm,Calm,-,N/A,,Clear,0,2012-11-29 05:53:00